Regional Weather Roundup
Issued by NWS

Home | Current Version | Previous Version | Graphics & Text | Print | Product List | Glossary On
Versions: 1 2 3 4 5 6 7 8 9 10 11 12 13 14 15 16 17 18 19 20 21 22 23 24 25 26 27 28 29 30 31 32 33 34 35 36 37 38 39 40 41 42 43 44 45 46 47 48 49 50
208
ASUS43 KMKX 250700
RWRWI

WISCONSIN REGIONAL WEATHER ROUNDUP
NATIONAL WEATHER SERVICE MILWAUKEE/SULLIVAN WI
200 AM CDT THU AUG 25 2016

NOTE: "FAIR" INDICATES FEW OR NO CLOUDS BELOW 12,000 FEET WITH NO
SIGNIFICANT WEATHER AND/OR OBSTRUCTIONS TO VISIBILITY.

WIZ001-002-006>008-014>016-023>028-250800-
NORTHWEST WISCONSIN

CITY           SKY/WX    TMP DP  RH WIND       PRES   REMARKS
SUPERIOR ARPT  CLEAR     57  56  95 SW7       29.94R
ASHLAND        PTCLDY    58  54  86 SW7       29.94R
HAYWARD        PTCLDY    57  55  93 CALM      29.98S
SIREN          PTCLDY    62  56  82 W6        29.99S
CUMBERLAND     CLOUDY    59  55  88 W5        30.00S
RICE LAKE      CLOUDY    60  56  88 W3        30.01S
CHETEK         NOT AVBL
LADYSMITH      MOCLDY    62  58  87 W3        30.00S
EAU CLAIRE     NOT AVBL
MENOMONIE      CLOUDY    64  58  81 W6        30.00S
NEW RICHMOND   PTCLDY    60  56  85 W3        30.01S
OSCEOLA        CLEAR     61  61 100 SW3       30.03S
$$

WIZ003>005-009-010-017-018-250800-
NORTH CENTRAL WISCONSIN

CITY           SKY/WX    TMP DP  RH WIND       PRES   REMARKS
MANITOWISH WTR NOT AVBL
ARBOR VITAE    MOCLDY    62  59  89 CALM      29.96R
WOODRUFF       MOCLDY    62  59  89 CALM      29.96R
RHINELANDER    CLOUDY    59  58  96 W7        29.96S
EAGLE RIVER    MOCLDY    61  57  86 W7        29.95R
LAND O LAKES   CLOUDY    61  58  91 CALM      29.95S
PHILLIPS       PTCLDY    59  58  95 CALM      29.97S
TOMAHAWK       MOCLDY    57  55  93 CALM      29.97S
MEDFORD        CLOUDY    60  60 100 SW3       29.98S
MERRILL        MOCLDY    61  59  93 W5        29.97F
$$

WIZ029-030-035-036-043>047-250800-
CENTRAL WISCONSIN

CITY           SKY/WX    TMP DP  RH WIND       PRES   REMARKS
WAUSAU         PTCLDY    64  58  80 W7        29.96S
MOSINEE        PTCLDY    61  59  94 W7        29.99S
MARSHFIELD     CLOUDY    63  58  83 SW3       29.99R
STEVENS POINT  PTCLDY    64  60  87 W3        29.98S
WAUPACA        CLOUDY    69  66  88 W3        29.96S
WAUTOMA        CLOUDY    65  63  93 W3        29.98R
WISC RAPIDS    CLOUDY    65  62  90 NW5       29.99S
CAMP DOUGLAS   NOT AVBL
$$

WIZ011>013-019>022-031-037>040-048>050-250800-
NORTHEAST WISCONSIN

CITY           SKY/WX    TMP DP  RH WIND       PRES   REMARKS
ANTIGO         MOCLDY    61  60  97 CALM      29.97S
SHAWANO        CLOUDY    68  64  86 W5        29.94S
OCONTO         NOT AVBL
STURGEON BAY   CLEAR     69  66  90 W5        29.92S
GREEN BAY      PTCLDY    66  66 100 W6        29.93S
MANITOWOC      CLEAR     68  66  94 SW3       29.94S FOG
APPLETON       MOCLDY    64  64 100 W7        29.94S
CLINTONVILLE   CLOUDY    64  63  94 W6        29.94S
OSHKOSH        MOCLDY    68  65  90 W5        29.95S
$$

WIZ032>034-041-042-053>061-250800-
SOUTHWEST WISCONSIN

CITY           SKY/WX    TMP DP  RH WIND       PRES   REMARKS
LA CROSSE      CLOUDY    67  32  27 N7        29.99S
SPARTA         CLOUDY    63  63  98 CALM      30.00S
VIROQUA        CLOUDY    64  60  88 CALM      30.01S
BOSCOBEL       CLOUDY    70  65  84 CALM      29.99R
PRAIRIE DU CHI CLOUDY    70  61  74 CALM      29.99S
PLATTEVILLE    CLOUDY    71  71  99 CALM      30.00S
$$

WIZ056-057-062-063-064-067-068-250800-
SOUTH CENTRAL WISCONSIN

CITY           SKY/WX    TMP DP  RH WIND       PRES   REMARKS
REEDSBURG      NOT AVBL
BARABOO/DELLS  CLOUDY    67  64  91 NW3       29.98S
LONE ROCK      NOT AVBL
MINERAL POINT  CLOUDY    72  70  94 NW3       30.00R
MADISON        CLOUDY    72  68  87 CALM      29.97R
MIDDLETON      CLOUDY    71  70  99 CALM      29.98R
WATERTOWN      CLOUDY    72  72 100 NW3       29.96R
MONROE         CLOUDY    72  70  94 N3        29.98S
JANESVILLE     CLOUDY    73  72  94 NE3       29.96R
$$

WIZ051-052-058>065-066-070>072-250800-
SOUTHEAST WISCONSIN

CITY           SKY/WX    TMP DP  RH WIND       PRES   REMARKS
MILWAUKEE      CLOUDY    76  71  85 E5        29.94F
WAUKESHA       CLOUDY    72  72 100 CALM      29.96F
MILWAUKEE/TIMM CLOUDY    73  68  83 N6        29.95S
RACINE         CLOUDY    75  71  87 CALM      29.95S
BURLINGTON     CLOUDY    72  70  95 CALM      29.94F
KENOSHA        LGT RAIN  76  71  85 SW8       29.95S
FOND DU LAC    CLOUDY    68  66  93 SW5       29.96S
SHEBOYGAN      PTCLDY    66  65  96 W5        29.94F
WEST BEND      PTCLDY    70  68  94 NW5       29.95S
JUNEAU         CLOUDY    69  68  95 NW5       29.97S
$$

LSZ147-162-250800-
LAKE SUPERIOR

STATION/POSITION TIME  TEMP    WIND        PRES    WAVE
                       AIR SEA DIR/SP/G            HT/PER
                 (UTC) (F)     (DEG/KT/KT) (MB)    (FT/S)
W MID LAKE BUOY  0550   70 68  270/ 14/ 16 1010.4R   2/ 5
DEVILS ISLAND    0600   68     260/ 11/ 13 1012.2S
PORT WING        0640   63     190/  6/  7 1013.5R
SAXON HARBOR     0600   65     200/  6/  9 1012.9S
$$

LMZ867-665-643>646-250800-
LAKE MICHIGAN

STATION/POSITION TIME  TEMP    WIND        PRES    WAVE
                       AIR SEA DIR/SP/G            HT/PER
                 (UTC) (F)     (DEG/KT/KT) (MB)    (FT/S)
CHAMBERS ISLAND  0600   69     220/  4/  8 1012.2
S GREEN BAY BUOY 0530   72 73  260/ 10/ 12 1012.5F
N MID LAKE BUOY  0550   70 69  250/ 10/ 10 1011.1R   4/ 7
NORTHPORT PIER   0600   71     270/  4/  7 1011.9F
SISTER BAY       0607   71     290/ 10/ 11   N/A
KEWAUNEE LAKESHO 0600   69     300/  3/  5 1012.8R
SHEBOYGAN LAKESH 0600   73     270/  7/  8 1013.5R
PORT WASHINGTON  0640   75     310/  3/  5 1014.6R
ATWATER BUOY     0600   61      CALM  /  2   N/A
MILWAUKEE LAKESH 0610   65      30/  1/  2   N/A
S MID LAKE BUOY  0550   76 75  210/ 12/ 14 1012.7F   1
KENOSHA   LAKESH 0600   78     250/  9/ 12 1013.5S
$$

TC  - TEMPERATURE IN CELSIUS
VSB - VISIBILITY IN STATUTE MILES
WCI - WIND CHILL INDEX
HX  - HEAT INDEX





USA.gov is the U.S. government's official web portal to all federal, state and local government web resources and services.